X-CUBESAT (42707 NORAD) Tracking and Keplerian Element Data

This shows tracking and keplerian element data for the satellite.

Feedback or suggestion? Click here.




ElementValue
Catalog42707
NameX-CUBESAT
Epoch Orbit9866
Epoch Day34.96093632
Epoch Year2019
RAAN225.9993
Inclination51.6151
Eccentricity0.0006204
Argument of Perigee290.2952
Mean Anonmoly69.7401
Mean Motion16.38701088
Decay Rate0.08699549
L11 42707U 98067LQ 19034.96093632 .08699549 12398-4 73318-3 0 9997
L22 42707 51.6151 225.9993 0006204 290.2952 69.7401 16.38701088 98669



Live tracking and technical data element details for X-CUBESAT (NORAD 42707). X-CUBESAT can be tracked NOW for your location showing map with azimuth and elevation plus other details from your city location.







IsCatalogInMostPopularTable: catalog: 42707, numindb: 810
Update: records affected: 1



GetName: 42707 X-CUBESAT

Hit Count: updated at: Mon, 28 Nov 2022 04:50:55 GMT